Location: Gleizolles
(44.4833°N, 6.7667°E)
Time: 16:45:53
(UTC+00:00)

Transit 2A - Pass Details

Date: 03 July 2024
Orbit: 591 x 960 km, 66.7° (Epoch: 16 July)

Event Time Altitude Azimuth Distance (km) Brightness Sun altitude
Rises 22:43:58 0° 308° (NW) 3,619 10.3 -21.6°
Reaches altitude 10° 22:48:52 10° 275° (W) 2,693 9.0 -21.8°
Maximum altitude 22:50:23 11° 260° (W) 2,625 8.8 -21.8°
Drops below altitude 10° 22:51:54 10° 246° (WSW) 2,689 8.7 -21.9°
Enters shadow 22:53:16 - 235° (SW) 2,851 8.7 -21.9°
